Satellite-Ground Cal/Val Region Overpasses Predictions

Prediction of Satellite NPP Overpassing Cal/Val Region: PacNW

Region Location: (Latitude: 10.00, Longitude: 139.50) to (Latitude: 22.70, Longitude: 165.60).

Table of predicted overpasses for the next 14.0 days since TLE Epoch: 3/23/2024
Interval Starting Time Starting Location Ending Time Ending Location
1 03/23/2024 02:58:59 ( 10.05, 155.03) 03/23/2024 03:02:34 ( 22.67, 152.03)
2 03/23/2024 15:30:52 ( 22.69, 152.26) 03/23/2024 15:34:28 ( 10.01, 149.25)
3 03/24/2024 02:39:58 ( 10.02, 159.79) 03/24/2024 02:43:33 ( 22.64, 156.79)
4 03/24/2024 15:11:52 ( 22.66, 157.01) 03/24/2024 15:15:27 ( 10.04, 154.01)
5 03/25/2024 02:20:57 ( 10.05, 164.53) 03/25/2024 02:24:32 ( 22.68, 161.54)
6 03/25/2024 14:52:50 ( 22.69, 161.77) 03/25/2024 14:56:26 ( 10.00, 158.75)
7 03/26/2024 03:43:26 ( 10.03, 143.92) 03/26/2024 03:47:01 ( 22.65, 140.92)
8 03/26/2024 14:34:54 ( 18.90, 165.59) 03/26/2024 14:37:25 ( 10.03, 163.51)
9 03/26/2024 16:15:20 ( 22.65, 141.14) 03/26/2024 16:17:14 ( 15.96, 139.51)
10 03/27/2024 03:24:24 ( 10.01, 148.68) 03/27/2024 03:28:00 ( 22.69, 145.66)
11 03/27/2024 15:56:18 ( 22.67, 145.90) 03/27/2024 15:59:53 ( 10.05, 142.90)
12 03/28/2024 03:05:24 ( 10.05, 153.42) 03/28/2024 03:08:59 ( 22.67, 150.42)
13 03/28/2024 15:37:17 ( 22.69, 150.65) 03/28/2024 15:40:53 ( 10.01, 147.64)
14 03/29/2024 02:46:23 ( 10.03, 158.18) 03/29/2024 02:49:58 ( 22.65, 155.18)
15 03/29/2024 15:18:16 ( 22.65, 155.40) 03/29/2024 15:21:51 ( 10.03, 152.40)
16 03/30/2024 02:27:21 ( 10.01, 162.94) 03/30/2024 02:30:57 ( 22.69, 159.92)
17 03/30/2024 14:59:15 ( 22.67, 160.15) 03/30/2024 15:02:50 ( 10.05, 157.15)
18 03/31/2024 02:10:53 ( 18.98, 165.59) 03/31/2024 02:11:56 ( 22.67, 164.68)
19 03/31/2024 03:49:51 ( 10.05, 142.30) 03/31/2024 03:53:12 ( 21.85, 139.51)
20 03/31/2024 14:40:13 ( 22.68, 164.91) 03/31/2024 14:43:49 ( 10.00, 161.90)
21 03/31/2024 16:21:43 ( 22.68, 139.54) 03/31/2024 16:21:45 ( 22.56, 139.51)
22 04/01/2024 03:30:49 ( 10.04, 147.06) 04/01/2024 03:34:24 ( 22.66, 144.06)
23 04/01/2024 16:02:42 ( 22.69, 144.29) 04/01/2024 16:06:18 ( 10.01, 141.28)
24 04/02/2024 03:11:48 ( 10.03, 151.82) 04/02/2024 03:15:23 ( 22.65, 148.82)
25 04/02/2024 15:43:41 ( 22.65, 149.03) 04/02/2024 15:47:16 ( 10.03, 146.04)
26 04/03/2024 02:52:46 ( 10.01, 156.57) 04/03/2024 02:56:22 ( 22.70, 153.56)
27 04/03/2024 15:24:40 ( 22.66, 153.79) 04/03/2024 15:28:15 ( 10.04, 150.79)
28 04/04/2024 02:33:45 ( 10.01, 161.33) 04/04/2024 02:37:21 ( 22.69, 158.32)
29 04/04/2024 15:05:38 ( 22.67, 158.55) 04/04/2024 15:09:13 ( 10.04, 155.55)
30 04/05/2024 02:15:19 ( 12.11, 165.60) 04/05/2024 02:18:19 ( 22.68, 163.07)
31 04/05/2024 03:56:13 ( 10.00, 140.71) 04/05/2024 03:57:41 ( 15.17, 139.51)
